TimeEST,TemperatureF,Dew PointF,Humidity,Sea Level PressureIn,VisibilityMPH,Wind Direction,Wind SpeedMPH,Gust SpeedMPH,PrecipitationIn,Events,Conditions,WindDirDegrees,DateUTC
12:15 AM,64.4,62.6,94,29.87,10.0,West,4.6,-,N/A,,Clear,270,2012-11-07 05:15:00
12:35 AM,64.4,60.8,88,29.87,10.0,West,4.6,-,N/A,,Clear,280,2012-11-07 05:35:00
12:55 AM,62.6,60.8,94,29.87,10.0,West,4.6,-,N/A,,Clear,280,2012-11-07 05:55:00
1:15 AM,62.6,60.8,94,29.86,10.0,WNW,6.9,-,N/A,,Clear,290,2012-11-07 06:15:00
1:35 AM,62.6,60.8,94,29.86,10.0,WNW,6.9,-,N/A,,Clear,290,2012-11-07 06:35:00
1:55 AM,62.6,60.8,94,29.86,10.0,West,6.9,-,N/A,,Clear,280,2012-11-07 06:55:00
2:15 AM,62.6,60.8,94,29.85,10.0,WNW,6.9,-,N/A,,Clear,290,2012-11-07 07:15:00
2:35 AM,62.6,60.8,94,29.85,10.0,WNW,6.9,-,N/A,,Clear,300,2012-11-07 07:35:00
2:55 AM,62.6,60.8,94,29.85,10.0,WNW,8.1,-,N/A,,Clear,300,2012-11-07 07:55:00
3:15 AM,62.6,59.0,88,29.86,10.0,WNW,11.5,-,N/A,,Clear,300,2012-11-07 08:15:00
3:55 AM,60.8,59.0,94,29.87,10.0,WNW,9.2,-,N/A,,Clear,300,2012-11-07 08:55:00
4:15 AM,60.8,57.2,88,29.87,10.0,WNW,6.9,-,N/A,,Clear,300,2012-11-07 09:15:00
4:35 AM,60.8,55.4,82,29.88,10.0,WNW,6.9,-,N/A,,Clear,290,2012-11-07 09:35:00
4:55 AM,60.8,57.2,88,29.88,10.0,West,5.8,-,N/A,,Clear,280,2012-11-07 09:55:00
5:15 AM,59.0,55.4,88,29.89,10.0,West,4.6,-,N/A,,Clear,260,2012-11-07 10:15:00
6:47 AM,57.2,55.4,94,29.91,7.0,West,5.8,-,N/A,,Partly Cloudy,270,2012-11-07 11:47:00
7:47 AM,59.0,57.2,94,29.93,7.0,WNW,9.2,-,N/A,,Mostly Cloudy,290,2012-11-07 12:47:00
8:47 AM,62.6,53.6,72,29.94,10.0,WNW,9.2,-,N/A,,Mostly Cloudy,290,2012-11-07 13:47:00
9:47 AM,64.4,50.0,59,29.96,10.0,WNW,13.8,-,N/A,,Partly Cloudy,300,2012-11-07 14:47:00
10:47 AM,66.2,48.2,52,29.95,10.0,WNW,15.0,21.9,N/A,,Partly Cloudy,300,2012-11-07 15:47:00
11:47 AM,68.0,46.4,46,29.92,10.0,West,15.0,27.6,N/A,,Partly Cloudy,270,2012-11-07 16:47:00
12:47 PM,69.8,46.4,43,29.89,7.0,WNW,20.7,27.6,N/A,,Scattered Clouds,290,2012-11-07 17:47:00
2:47 PM,69.8,44.6,40,29.88,7.0,WNW,11.5,20.7,N/A,,Scattered Clouds,300,2012-11-07 19:47:00
3:47 PM,68.0,44.6,43,29.87,7.0,WNW,13.8,20.7,N/A,,Scattered Clouds,290,2012-11-07 20:47:00
4:47 PM,66.2,42.8,43,29.89,7.0,WNW,13.8,20.7,N/A,,Scattered Clouds,300,2012-11-07 21:47:00
6:47 PM,62.6,44.6,52,29.92,7.0,WNW,9.2,-,N/A,,Scattered Clouds,300,2012-11-07 23:47:00
7:15 PM,62.6,44.6,52,29.94,10.0,NW,4.6,-,N/A,,Clear,310,2012-11-08 00:15:00
7:35 PM,60.8,44.6,55,29.95,10.0,WNW,5.8,-,N/A,,Clear,300,2012-11-08 00:35:00
7:55 PM,60.8,44.6,55,29.96,10.0,NW,5.8,-,N/A,,Clear,310,2012-11-08 00:55:00
8:15 PM,60.8,44.6,55,29.97,10.0,NW,6.9,-,N/A,,Clear,310,2012-11-08 01:15:00
8:35 PM,60.8,44.6,55,29.98,10.0,NW,9.2,16.1,N/A,,Clear,320,2012-11-08 01:35:00
8:55 PM,60.8,44.6,55,29.99,10.0,NW,6.9,-,N/A,,Clear,310,2012-11-08 01:55:00
9:15 PM,60.8,44.6,55,30.00,10.0,NW,9.2,-,N/A,,Clear,320,2012-11-08 02:15:00
9:35 PM,59.0,42.8,55,30.00,10.0,NW,6.9,-,N/A,,Clear,310,2012-11-08 02:35:00
9:55 PM,59.0,44.6,59,30.01,10.0,NW,8.1,-,N/A,,Clear,310,2012-11-08 02:55:00
10:15 PM,59.0,44.6,59,30.01,10.0,NW,8.1,-,N/A,,Clear,320,2012-11-08 03:15:00
10:35 PM,57.2,44.6,63,30.01,10.0,NW,8.1,-,N/A,,Clear,320,2012-11-08 03:35:00
10:55 PM,57.2,42.8,59,30.00,10.0,NW,8.1,-,N/A,,Clear,320,2012-11-08 03:55:00
11:15 PM,55.4,44.6,67,30.00,10.0,NW,6.9,-,N/A,,Clear,320,2012-11-08 04:15:00
11:35 PM,55.4,44.6,67,30.00,10.0,WNW,6.9,-,N/A,,Clear,300,2012-11-08 04:35:00
11:55 PM,55.4,44.6,67,30.00,10.0,NW,6.9,-,N/A,,Clear,320,2012-11-08 04:55:00